Satellite: LO-19
Catalog number: 20442
Epoch time:      07341.76183275
Element set:     121
Inclination:      098.1883 deg
RA of node:       335.9334 deg
Eccentricity:    0.0012513
Arg of perigee:   032.6295 deg
Mean anomaly:     327.5645 deg
Mean motion:   14.32017229 rev/day
Decay rate:       -2.8e-07 rev/day^2
Epoch rev:           93353
Checksum:              294

Satellite: AO-16
Catalog number: 20439
Epoch time:      07340.56437229
Element set:    0197
Inclination:      098.2109 deg
RA of node:       325.7519 deg
Eccentricity:    0.0011781
Arg of perigee:   036.8324 deg
Mean anomaly:     323.3678 deg
Mean motion:   14.31777705 rev/day
Decay rate:        1.8e-07 rev/day^2
Epoch rev:           93321
Checksum:              311

/EX
SB KEPS @ AMSAT  $ORB07342.W
Orbital Elements  07342.WEATHER

HR AMSAT ORBITAL ELEMENTS FOR WEATHER SATELLITES
FROM WA5QGD FORT WORTH,TX December 8, 2007
Send Subscribe/unsubscribe to KEPS at 
http://www.amsat.org/mailman/listinfo/keps
BID: ORB07342.W
TO ALL RADIO AMATEURS BT

Satellite: NOAA-18
Catalog number: 28654
Epoch time:      07342.39960606
Element set:     226
Inclination:      098.8482 deg
RA of node:       280.8975 deg
Eccentricity:    0.0014972
Arg of perigee:   133.6996 deg
Mean anomaly:     226.5431 deg
Mean motion:   14.11117697 rev/day
Decay rate:       2.51e-06 rev/day^2
Epoch rev:           13142
Checksum:              327

Satellite: NOAA-17
Catalog number: 27453
Epoch time:      07342.43479420
Element set:     710
Inclination:      098.5632 deg
RA of node:       047.3885 deg
Eccentricity:    0.0010986
Arg of perigee:   309.7444 deg
Mean anomaly:     050.2779 deg
Mean motion:   14.23931269 rev/day
Decay rate:       1.77e-06 rev/day^2
Epoch rev:           28351
Checksum:              323

Satellite: NOAA-16
Catalog number: 26536
Epoch time:      07342.30991926
Element set:     714
Inclination:      099.1385 deg
RA of node:       322.4702 deg
Eccentricity:    0.0011197
Arg of perigee:   047.6057 deg
Mean anomaly:     312.6073 deg
Mean motion:   14.12459820 rev/day
Decay rate:      -1.30e-06 rev/day^2
Epoch rev:           37168
Checksum:              297

Satellite: OKEAN-0
Catalog number: 25860
Epoch time:      07342.07683068
Element set:     231
Inclination:      097.7382 deg
RA of node:       336.2783 deg
Eccentricity:    0.0001274
Arg of perigee:   105.5367 deg
Mean anomaly:     254.5978 deg
Mean motion:   14.73489343 rev/day
Decay rate:        5.3e-07 rev/day^2
Epoch rev:           45110
Checksum:              306

Satellite: FENGYUN1
Catalog number: 25730
Epoch time:      07342.57346098
Element set:     286
Inclination:      098.7075 deg
RA of node:       319.9937 deg
Eccentricity:    0.0021064
Arg of perigee:   351.2191 deg
Mean anomaly:     008.8605 deg
Mean motion:   14.07648339 rev/day
Decay rate:       2.77e-06 rev/day^2
Epoch rev:           44200
Checksum:              311

Satellite: RESURS
Catalog number: 25394
Epoch time:      07341.74482958
Element set:     802
Inclination:      098.4147 deg
RA of node:       029.1912 deg
Eccentricity:    0.0002387
Arg of perigee:   050.7366 deg
Mean anomaly:     309.4025 deg
Mean motion:   14.24149860 rev/day
Decay rate:       -2.9e-07 rev/day^2
Epoch rev:           48905
Checksum:              309

Satellite: NOAA-15
Catalog number: 25338
Epoch time:      07342.41721851
Element set:     268
Inclination:      098.5426 deg
RA of node:       334.2940 deg
Eccentricity:    0.0009770
Arg of perigee:   238.5760 deg
Mean anomaly:     121.4467 deg
Mean motion:   14.24675893 rev/day
Decay rate:        4.5e-07 rev/day^2
Epoch rev:           49749
Checksum:              328

Satellite: SICH-1
Catalog number: 23657
Epoch time:      07342.40724053
Element set:     245
Inclination:      082.5272 deg
RA of node:       274.9479 deg
Eccentricity:    0.0025340
Arg of perigee:   033.8937 deg
Mean anomaly:     326.3894 deg
Mean motion:   14.81532549 rev/day
Decay rate:       2.77e-06 rev/day^2
Epoch rev:           66182
Checksum:              317

Satellite: NOAA-14
Catalog number: 23455
Epoch time:      07342.39682037
Element set:     928
Inclination:      098.9722 deg
RA of node:       049.3352 deg
Eccentricity:    0.0008965
Arg of perigee:   331.7533 deg
Mean anomaly:     028.3196 deg
Mean motion:   14.13730403 rev/day
Decay rate:        7.0e-07 rev/day^2
Epoch rev:           66725
Checksum:              312

Satellite: OKEAN-4
Catalog number: 23317
Epoch time:      07342.11174489
Element set:     445
Inclination:      082.5366 deg
RA of node:       134.2858 deg
Eccentricity:    0.0023506
Arg of perigee:   043.1805 deg
Mean anomaly:     317.1253 deg
Mean motion:   14.82556723 rev/day
Decay rate:        5.6e-07 rev/day^2
Epoch rev:           70982
Checksum:              295

Satellite: MET-2/21
Catalog number: 22782
Epoch time:      07342.28654356
Element set:       5
Inclination:      082.5476 deg
RA of node:       263.7895 deg
Eccentricity:    0.0023994
Arg of perigee:   106.7178 deg
Mean anomaly:     253.6621 deg
Mean motion:   13.83621943 rev/day
Decay rate:       -1.5e-07 rev/day^2
Epoch rev:           72059
Checksum:              321

Satellite: MET-3/5
Catalog number: 21655
Epoch time:      07341.83872435
Element set:     359
Inclination:      082.5560 deg
RA of node:       240.2474 deg
Eccentricity:    0.0014121
Arg of perigee:   130.3209 deg
Mean anomaly:     229.9149 deg
Mean motion:   13.17013026 rev/day
Decay rate:        5.1e-07 rev/day^2
Epoch rev:           78426
Checksum:              279

Satellite: NOAA-12
Catalog number: 21263
Epoch time:      07342.37409366
Element set:     456
Inclination:      098.7613 deg
RA of node:       339.4048 deg
Eccentricity:    0.0012008
Arg of perigee:   326.3794 deg
Mean anomaly:     033.6624 deg
Mean motion:   14.25506913 rev/day
Decay rate:       1.41e-06 rev/day^2
Epoch rev:           86106
Checksum:              293

Satellite: NOAA-11
Catalog number: 19531
Epoch time:      07342.31079917
Element set:     951
Inclination:      098.8075 deg
RA of node:       069.2684 deg
Eccentricity:    0.0010819
Arg of perigee:   255.3687 deg
Mean anomaly:     104.6334 deg
Mean motion:   14.14857448 rev/day
Decay rate:        4.5e-07 rev/day^2
Epoch rev:           99077
Checksum:              335

Satellite: NOAA-10
Catalog number: 16969
Epoch time:      07342.36241024
Element set:     920
Inclination:      098.7378 deg
RA of node:       359.5800 deg
Eccentricity:    0.0012885
Arg of perigee:   023.6019 deg
Mean anomaly:     336.5755 deg
Mean motion:   14.27343855 rev/day
Decay rate:       1.07e-06 rev/day^2
Epoch rev:           10407
Checksum:              304

/EX
SB KEPS @ AMSAT  $ORB07342.M
Orbital Elements  07342.MISC

HR AMSAT ORBITAL ELEMENTS FOR MANNED AND MISCELLANEOUS SATELLITES
FROM WA5QGD FORT WORTH,TX December 8, 2007
Send Subscribe/unsubscribe to KEPS at 
http://www.amsat.org/mailman/listinfo/keps
BID: ORB07342.M
TO ALL RADIO AMATEURS BT

Satellite: CAPE1
Catalog number: 31130
Epoch time:      07341.78382675
Element set:     181
Inclination:      098.0663 deg
RA of node:       048.1232 deg
Eccentricity:    0.0102057
Arg of perigee:   209.2962 deg
Mean anomaly:     150.2479 deg
Mean motion:   14.51908358 rev/day
Decay rate:      -1.39e-06 rev/day^2
Epoch rev:            3380
Checksum:              286

Satellite: MAST
Catalog number: 31126
Epoch time:      07341.54501429
Element set:     201
Inclination:      098.0661 deg
RA of node:       048.4389 deg
Eccentricity:    0.0094452
Arg of perigee:   208.3282 deg
Mean anomaly:     151.2760 deg
Mean motion:   14.53382376 rev/day
Decay rate:       1.26e-06 rev/day^2
Epoch rev:            3403
Checksum:              268

Satellite: FALCON
Catalog number: 30776
Epoch time:      07342.12225482
Element set:     199
Inclination:      035.4339 deg
RA of node:       238.1706 deg
Eccentricity:    0.0000542
Arg of perigee:   217.2310 deg
Mean anomaly:     142.8369 deg
Mean motion:   15.02815435 rev/day
Decay rate:       2.52e-06 rev/day^2
Epoch rev:            4123
Checksum:              260

Satellite: FCAL
Catalog number: 29667
Epoch time:      07342.24935580
Element set:     566
Inclination:      051.6320 deg
RA of node:       256.8650 deg
Eccentricity:    0.0008105
Arg of perigee:   315.7021 deg
Mean anomaly:     044.3339 deg
Mean motion:   15.96119934 rev/day
Decay rate:     2.7039e-04 rev/day^2
Epoch rev:            5572
Checksum:              302

Satellite: NCUBE2
Catalog number: 28897
Epoch time:      07341.68568428
Element set:     421
Inclination:      098.1145 deg
RA of node:       234.9150 deg
Eccentricity:    0.0016592
Arg of perigee:   295.0398 deg
Mean anomaly:     064.9079 deg
Mean motion:   14.59778599 rev/day
Decay rate:       1.42e-06 rev/day^2
Epoch rev:           10468
Checksum:              350

Satellite: CO-58
Catalog number: 28895
Epoch time:      07342.38445782
Element set:     892
Inclination:      098.1157 deg
RA of node:       235.6555 deg
Eccentricity:    0.0016908
Arg of perigee:   289.8669 deg
Mean anomaly:     070.0733 deg
Mean motion:   14.59611684 rev/day
Decay rate:        4.1e-07 rev/day^2
Epoch rev:           11250
Checksum:              345

Satellite: UWE-1
Catalog number: 28892
Epoch time:      07341.72553479
Element set:     917
Inclination:      098.1130 deg
RA of node:       234.7310 deg
Eccentricity:    0.0016585
Arg of perigee:   292.8572 deg
Mean anomaly:     067.0865 deg
Mean motion:   14.59568917 rev/day
Decay rate:        3.4e-07 rev/day^2
Epoch rev:           11252
Checksum:              322

